View from above orbital plane
|
View from above satellite
|
Ground track
|
The orbit data is extracted from the following two-line orbital elements,
1 18129U 87054A 21067.89454060 .00000040 00000-0 27041-4 0 9999
2 18129 82.9256 308.6350 0010431 268.5708 103.7262 13.73039433689184
Epoch (UTC): | 08 March 2021 21:28:08 |
Eccentricity: | 0.0010431 |
inclination: | 82.9256° |
perigee height: | 981 km |
apogee height: | 996 km |
right ascension of ascending node: | 308.6350° |
argument of perigee: | 268.5708° |
revolutions per day: | 13.73039433 |
mean anomaly at epoch: | 103.7262° |
orbit number at epoch: | 68918 |
The dashed part of the orbit path shows where the satellite is in the earth's shadow,
|
|